Back to catalog

DELTA 1 DEB

AliveLEO
NORAD 7043·DEBRIS·🇺🇸 United States

Launched Nov 6, 1973 from Vandenberg Space Force Base

Loading…

Next Passes (next 24 hours)

TLE

FreshSource: Space-Track

Epoch: Sep 13, 2026, 18:32 UTC

1 07043U 73086AK  26256.77281088 -.00000118  00000-0 -24883-3 0  9990
2 07043 102.1179 328.3518 0216508  60.4529  61.1399 12.85398610475968

Track DELTA 1 DEB in real time with AllMySat

Download on the App Store